Weather in Mihaylovka

Russia / Volgograd Oblast     50°04′15″N   43°14′23″E
temp.,
°C
wind,
m/s
gust,
m/s
humid.,
%
clouds,
%
prec.,
mm/h
press.,
hPa
HPBL,
m
25 february, thu
thu2500:00−16ssw126592 0.0 1040233
03:00−15ssw367095 0.0 1038307
06:00−13ssw4874100 0.0 1036403
09:00−12ssw6969100 0.0 1034461
12:00−10ssw71184100 0.3 1031561
15:00−8sw81283100 0.4 1028605
18:00−7sw71392100 1.0 1025479
21:00−5sw71595100 1.5 1022456
26 february, fri
fri2600:00−3wsw71495100 0.9 1019376
03:00−1w51096100 1.0 1019220
06:000w41098100 0.3 1018227
09:00+1wnw51097100 0.6 1018282
12:00+2w58100100 0.1 1018258
15:00+2w41099100 0.3 1017278
18:00+2wsw51297100 0.1 1015309
21:00+2wsw61496100 0.1 1014444
27 february, sat
sat2700:00+2wsw61396100 0.1 1012394
03:00+2w71494100 0.3 1011465
06:00+2w61294100 0.0 1009389
09:00+2w51194100 0.0 1009488
12:00+2w61190100 0.0 1008658
15:00+2w61192100 0.1 1008701
18:00+1w61196100 0.1 1008559
21:00+1w61195100 0.2 1009537
28 february, sun
sun2800:000w61197100 0.1 1008546
03:000w51093100 0.2 1009504
06:00−1wnw5109495 0.1 1010360
09:00−3nnw478188 0.1 1011480
12:00−3nnw567587 0.0 1013613
15:00−3nnw577487 0.0 1014658
18:00−5nnw587998 0.0 1016630
21:00−6n587999 0.0 1019661
1 march, mon
mon100:00−6n588099 0.1 1021699
03:00−7nnw4682100 0.1 1022588
06:00−8nnw4784100 0.0 1023562
09:00−7n587798 0.0 1025606
12:00−6nnw567096 0.0 1026665
15:00−5nnw567197 0.0 1027669
18:00−6nnw577697 0.0 1028644
21:00−7nnw467896 0.0 1030564